Location: Clifford
(43.9666°N, 80.9757°W)
Time: 20:37:47
(UTC+00:00)

Daily predictions for brighter satellites

Satellite Brightness Start Highest point End
(mag) Time Altitude Azimuth Time Altitude Azimuth Time Altitude Azimuth
SJ-12 4.0 12:02:06 10° NNE 12:05:55 73° ESE 12:09:42 10° S
Cosmos 2341 Rocket 4.1 12:04:04 10° SSW 12:10:20 58° WNW 12:16:39 10° N
Cosmos 2297 3.8 12:06:08 10° SSW 12:11:45 87° ESE 12:17:25 10° NNE
IGS 5A 4.4 12:09:55 10° NNW 12:13:09 24° WNW 12:16:21 10° WSW
BREEZE-M DEB (TANK) 3.6 12:06:43 10° WSW 12:13:43 77° NNW 12:19:20 10° ENE
Cosmos 1763 Rocket 4.3 12:10:57 10° NW 12:15:15 29° W 12:19:34 10° SSW
Cosmos 2084 Rocket 4.1 12:11:36 10° NW 12:15:29 36° WSW 12:19:21 10° S
Cosmos 371 Rocket 3.4 12:12:27 10° SW 12:17:11 56° WNW 12:21:55 10° NNE
Cosmos 1190 Rocket 4.1 12:14:43 10° SW 12:19:48 55° WNW 12:24:55 10° NNE
Cosmos 2263 4.5 12:14:06 10° SSW 12:19:51 81° ESE 12:25:38 10° NNE
Cosmos 540 Rocket 4.3 12:17:06 10° NW 12:21:28 29° W 12:25:50 10° SSW
Meteor 2-14 Rocket 4.5 12:15:34 10° N 12:21:45 82° W 12:27:52 10° S
Meteor 1-12 Rocket 4.4 12:16:28 10° S 12:22:19 87° E 12:28:04 10° N
Cosmos 841 Rocket 3.6 12:17:10 10° NNW 12:22:21 81° ENE 12:27:28 10° SSE
Cosmos 1484 Rocket 4.0 12:21:47 10° NNW 12:24:03 17° WNW 12:26:20 10° WSW
NOSS 2-2 (C) 3.7 12:22:16 10° WSW 12:25:06 26° NW 12:27:43 10° NNE
Cosmos 1703 Rocket 3.6 12:21:11 10° NNW 12:25:26 59° W 12:29:41 10° S
COBE Rocket 4.4 12:20:33 10° SSE 12:25:28 67° ENE 12:30:32 10° N
Landsat 7 4.0 12:22:03 10° N 12:26:31 48° WNW 12:30:58 10° SW
SL-8 Rocket 4.4 12:21:15 10° SW 12:27:10 42° WNW 12:33:06 10° N
Cosmos 2218 Rocket 4.1 22:37:39 10° N 22:44:05 77° E 22:50:26 10° SSE
Cosmos 1470 Rocket 3.5 22:40:10 10° N 22:44:31 87° E 22:48:53 10° S
AQUARIUS 4.5 22:41:43 10° SE 22:45:53 43° ENE 22:50:04 10° N
Cosmos 1340 Rocket 3.4 22:42:56 10° N 22:46:24 31° ENE 22:49:51 10° SE
SJ-12 4.1 22:44:12 10° SE 22:47:49 43° ENE 22:51:28 10° N
SL-16 R/B 3.1 22:42:04 10° N 22:48:08 62° WNW 22:54:11 10° SSW
Cosmos 1933 Rocket 3.8 22:48:22 10° N 22:52:37 46° ENE 22:56:47 10° SSE
Cosmos 1741 Rocket 4.0 22:48:24 10° NNW 22:53:38 84° ENE 22:58:50 10° SSE
Cosmos 1302 Rocket 4.3 22:48:38 10° S 22:53:40 49° ESE 22:58:44 10° NNE
BREEZE-M DEB (TANK) 2.7 22:54:13 10° WNW 22:56:54 86° NNE 23:06:12 10° ESE
Cosmos 1656 3.7 22:51:30 10° NNW 22:57:01 56° ENE 23:02:24 10° SE
Cosmos 1484 Rocket 4.4 22:54:07 10° SSW 22:57:11 34° W 23:00:16 10° NNW
Cosmos 1850 Rocket 4.2 22:52:46 10° NNW 22:58:06 85° WSW 23:03:25 10° SSE
Resurs 01 Rocket 3.4 22:56:41 10° E 22:58:20 12° ENE 22:59:59 10° NE
IRS-P3 4.3 22:54:46 10° SE 22:59:52 51° ENE 23:05:01 10° N
UNK 3.9 22:59:19 10° N 23:03:50 74° WNW 23:08:19 10° SSW
Nadezhda 3 Rocket 4.2 22:58:37 10° SSE 23:04:24 46° E 23:10:14 10° NNE
Cosmos 2360 4.3 22:58:55 10° NNW 23:04:31 53° ENE 23:10:05 10° SE
Meteor 1-12 Rocket 4.2 22:59:17 10° N 23:04:57 78° E 23:10:36 10° SSE
SL-24 R/B - RUBIN 2 3.7 23:05:51 10° NW 23:10:12 79° WSW 23:14:40 10° SSE
SAR-Lupe-1 4.2 23:08:05 10° SSE 23:11:32 51° ENE 23:15:01 10° N
CZ-2D R/B 2.7 23:10:14 10° SSE 23:13:22 86° W 23:16:30 10° NNW
Thor Agena Rocket 4.2 23:08:47 10° S 23:13:44 59° WSW 23:18:42 10° NNW
NOSS 3-4 (A) 4.2 23:11:48 10° WSW 23:16:49 42° NW 23:22:21 10° NNE
NOSS 3-4 (C) 4.2 23:11:56 10° WSW 23:16:59 42° NW 23:22:32 10° NNE
Cosmos 1992 Rocket 4.4 23:12:46 10° S 23:17:38 43° ESE 23:22:30 10° NNE
BREEZE-M DEB (TANK) 2.4 23:15:28 10° WSW 23:17:49 75° NNW 23:21:19 15° ENE
SPOT 1/Viking Rocket 3.5 23:12:57 10° SSE 23:18:02 65° ENE 23:23:08 10° N
Cosmos 1452 Rocket 4.1 23:13:12 10° SSW 23:18:22 60° WNW 23:23:36 10° NNE
Cosmos 1869 Rocket 3.5 23:15:07 10° N 23:19:28 63° E 23:23:45 10° SSE
CZ-2D R/B 3.7 23:19:59 10° SE 23:23:32 38° ENE 23:27:04 10° N
COSMOS 2455 3.6 23:21:31 10° NNW 23:26:47 30° NE 23:30:52 15° E
SAR-Lupe-4 3.5 23:24:22 10° SSE 23:27:57 87° ENE 23:31:33 10° NNW
Cosmos 1980 Rocket 3.4 23:25:38 10° N 23:29:40 20° NE 23:31:03 18° ENE
Radarsat Rocket 4.1 23:24:21 10° SE 23:30:12 48° ENE 23:35:47 10° N
Resurs 1-3 3.6 23:26:10 10° SSE 23:30:19 51° ENE 23:34:30 10° N
BREEZE-M DEB (TANK) 1.9 23:30:32 10° WNW 23:32:51 57° NNE 23:33:59 28° E
USA 59 Rocket 0.1 23:30:01 10° NNW 23:33:23 44° NE 23:37:47 10° ESE
Cosmos 1862 Rocket 3.9 23:39:39 10° SSE 23:43:48 41° E 23:46:59 16° NNE
Spot 4 Rocket 4.0 23:39:33 10° SSE 23:44:36 64° ENE 23:49:41 10° N
NOSS 3-1 (C) 4.2 23:38:06 10° NNW 23:44:52 50° NE 23:52:50 11° ESE
Meteor 2-8 Rocket 4.4 23:39:11 10° N 23:45:22 74° E 23:51:31 10° SSE
NOSS 2-1 (E) 3.6 23:43:00 10° NNW 23:46:19 40° NE 23:47:45 29° E
NOSS 2-1 (C) 3.4 23:43:50 10° NNW 23:47:12 48° NE 23:49:26 24° ESE
USA 215 3.9 23:43:45 22° ENE 23:47:16 36° SE 23:53:09 10° SSW
USA 276 3.5 23:46:27 10° NW 23:48:04 19° N 23:48:04 19° N
YAOGAN 1 2.4 23:46:55 10° SSE 23:51:11 85° ENE 23:55:27 10° NNW
Cosmos 1697 Rocket 2.7 23:47:02 10° NNW 23:52:36 55° ENE 23:58:09 10° SE
Okean 1-7 3.2 23:49:09 10° SSE 23:53:02 42° E 23:54:13 33° NE
Helios 1A Rocket 4.2 23:55:51 18° SSE 23:55:51 18° SSE 23:56:59 10° SSE
ISS -2.1 23:52:54 10° WNW 23:55:35 22° N 23:56:02 21° N
